Location: Stoke Bliss
(52.2667°N, 2.5167°W)
Time: 16:41:28
(UTC+00:00)

USA 306 - Pass Details

Date: 03 March 2021
Orbit: 564 x 577 km, 54.0° (Epoch: 17 April)

Event Time Altitude Azimuth Distance (km) Brightness Sun altitude
Rises 18:18:10 0° 255° (WSW) 2,772 8.7 -4.6°
Reaches altitude 10° 18:20:25 10° 256° (WSW) 1,874 7.3 -4.9°
Maximum altitude 18:24:41 84° 344° (NNW) 578 3.0 -5.6°
Drops below altitude 10° 18:28:57 10° 74° (ENE) 1,870 4.9 -6.2°
Enters shadow 18:29:30 - 74° (ENE) 2,085 5.1 -6.3°
